Tracking 32140 objects as of 14-Nov-2025
HD Live streaming from Space Station
objects crossing your sky now

OBJECT D

Track OBJECT D now!
10-day predictions


NORAD ID: 65262
Int'l Code: 2025-180D
Perigee: 524.6 km
Apogee: 546.1 km
Inclination: 97.5 °
Period: 95.2 minutes
Semi major axis: 6906 km
RCS: Unknown
Launch date: August 19, 2025
Source: People's Republic of China (PRC)
Launch site: Jiuquan Satellite Launch Center, China (JSC)

Note: This is a ROCKET BODY
Your satellite tracking list
Your tracking list is empty




NASA's NSSDC Master Catalog

Two Line Element Set (TLE):
1 65262U 25180D   25305.27375840  .00006889  00000-0  39696-3 0  9995
2 65262  97.5007  70.4803 0015517  32.0374 328.1797 15.12616003 11173
Source of the keplerian elements: AFSPC